Aérodrome :
LOGIN :

S'inscrire | Disclaimer

   EN    FR    IT 

 










Légende :    VFR   VFR Marginal   IFR   IFR Intensif   IFR Très Intensif
Visi : 
Plafond : 
>= 8 km
>= 3000ft
5 à 8 km
1000 à 3000 ft
1500m à 5 km
500 à 1000 ft
800 à 1500m
200 à 500 ft
< 800m
< 200 ft
Symboles :   Orages  Brouillard  Fortes neiges  Fortes précipitations  Vent > 20 kt
SIGMETs :   Divers  Orages  Givrage  Turbulence  Onde Orograph.  Cendres Volcan.







- Altitude de l'aérodrome : 645 ft
- Code IATA : DLE
- Voir les cartes d'approche


LFGJ - Dole Tavaux

DERNIER METAR :
  • 262030Z AUTO 03003KT CAVOK 09/04 Q1019

METARs EXPIRÉS :
  • 262000Z AUTO 07004KT CAVOK 09/05 Q1019
  • 261930Z AUTO 01005KT CAVOK 11/04 Q1019
  • 261900Z AUTO 01005KT CAVOK 12/04 Q1019 NOSIG
  • 261830Z AUTO 01006KT CAVOK 12/05 Q1019 NOSIG
  • 261800Z AUTO 01005KT 340V040 CAVOK 13/05 Q1019 NOSIG

TAF TAF LFGJ
Valide du 26 à 15h jusqu'au 27 à 00h UTC


261400Z 2615/2624 32006KT CAVOK
Pas de NOTAMs connus pour ce terrain.



MET'MAP, la Météo Aéronautique d'un coup d'oeil ! - Copyright ORBIFLY Décembre 2007 - Disclaimer

ORBIFLY MET'MAP TEAM :

Programmation & Développement : Alexandra Zaïnal
Conception & Développement : Baudouin d'Aumeries
Co-Programmation & Développement : Marc-Olivier Méhu
Soutien technique & logistique : Manuel Goepfert

Contact : metmap@orbifly.com




SOURCES & CREDITS :

   NOAA